When you browse on this site, cookies collect data to enhance your experience and personalize the content and advertising you see.
Visit our Privacy Policy to learn more. By continuing to use the site, you agree to this use of cookies and data.
  • în România
  • Lista ţărilor
  • Pe 7 zile
  • Temperatura apei
  • Hartă satelitară
  • Meteo pe hartă
  • Widget-uri
  • user-avatar
    Intrare

    Meteo pe oră la Lipsk

    Astăzi, 18 Martie, Luni

    Timp Temperatura Precipitaţii Vânt Presiune Umiditate
    00:00 +2°C° 0 mm 5 m/s 746 mmHg 78%
    01:00 +1°C° 0 mm 4 m/s 746 mmHg 81%
    02:00 +1°C° 0 mm 5 m/s 746 mmHg 81%
    03:00 +1°C° 0 mm 5 m/s 747 mmHg 81%
    04:00 -1°C° 0 mm 6 m/s 747 mmHg 81%
    05:00 -1°C° 0 mm 6 m/s 747 mmHg 81%
    06:00 -1°C° 0 mm 6 m/s 748 mmHg 80%
    07:00 -1°C° 0 mm 6 m/s 748 mmHg 81%
    08:00 0°C° 0 mm 7 m/s 748 mmHg 78%
    09:00 +2°C° 0 mm 7 m/s 749 mmHg 74%
    10:00 +2°C° 0 mm 8 m/s 749 mmHg 71%
    11:00 +4°C° 0.1 mm 8 m/s 749 mmHg 66%
    12:00 +5°C° 0.1 mm 8 m/s 750 mmHg 61%
    13:00 +6°C° 0.1 mm 8 m/s 750 mmHg 57%
    14:00 +6°C° 0.3 mm 8 m/s 750 mmHg 55%
    15:00 +6°C° 0.3 mm 8 m/s 750 mmHg 54%
    16:00 +6°C° 0.3 mm 8 m/s 750 mmHg 53%
    17:00 +5°C° 0.1 mm 7 m/s 751 mmHg 58%
    18:00 +5°C° 0.1 mm 5 m/s 752 mmHg 63%
    19:00 +4°C° 0.1 mm 4 m/s 752 mmHg 68%
    20:00 +3°C° 0 mm 4 m/s 753 mmHg 71%
    21:00 +3°C° 0 mm 4 m/s 753 mmHg 74%
    22:00 +1°C° 0 mm 4 m/s 754 mmHg 77%
    23:00 +1°C° 0 mm 4 m/s 755 mmHg 79%

    Mâine, 19 Martie, Marţi

    Timp Temperatura Precipitaţii Vânt Presiune Umiditate
    00:00 0°C° 0 mm 4 m/s 755 mmHg 81%
    01:00 0°C° 0 mm 4 m/s 755 mmHg 83%
    02:00 0°C° 0 mm 4 m/s 756 mmHg 85%
    03:00 -1°C° 0 mm 4 m/s 756 mmHg 86%
    04:00 -1°C° 0 mm 4 m/s 756 mmHg 88%
    05:00 -1°C° 0 mm 4 m/s 757 mmHg 88%
    06:00 0°C° 0 mm 3 m/s 757 mmHg 89%
    07:00 0°C° 0 mm 3 m/s 758 mmHg 89%
    08:00 0°C° 0 mm 4 m/s 758 mmHg 80%
    09:00 +3°C° 0 mm 4 m/s 759 mmHg 72%
    10:00 +5°C° 0 mm 4 m/s 759 mmHg 63%
    11:00 +5°C° 0 mm 4 m/s 759 mmHg 61%
    12:00 +6°C° 0 mm 4 m/s 760 mmHg 58%
    13:00 +6°C° 0 mm 4 m/s 760 mmHg 56%
    14:00 +6°C° 0 mm 4 m/s 760 mmHg 56%
    15:00 +6°C° 0 mm 4 m/s 760 mmHg 56%
    16:00 +7°C° 0 mm 3 m/s 760 mmHg 56%
    17:00 +5°C° 0 mm 3 m/s 761 mmHg 60%
    18:00 +5°C° 0 mm 2 m/s 761 mmHg 64%
    19:00 +6°C° 0 mm 1 m/s 761 mmHg 68%
    20:00 +6°C° 0 mm 1 m/s 762 mmHg 68%
    21:00 +6°C° 0 mm 1 m/s 763 mmHg 68%
    22:00 +6°C° 0 mm 1 m/s 763 mmHg 68%
    23:00 +5°C° 0 mm 1 m/s 763 mmHg 72%

    Poimâine, 20 Martie, Miercuri

    Timp Temperatura Precipitaţii Vânt Presiune Umiditate
    00:00 +3°C° 0 mm 2 m/s 763 mmHg 76%
    01:00 +2°C° 0 mm 2 m/s 764 mmHg 79%
    02:00 +2°C° 0 mm 2 m/s 764 mmHg 81%
    03:00 +1°C° 0 mm 2 m/s 764 mmHg 82%
    04:00 +1°C° 0 mm 2 m/s 764 mmHg 83%
    05:00 +1°C° 0 mm 2 m/s 764 mmHg 82%
    06:00 +1°C° 0 mm 2 m/s 764 mmHg 81%
    07:00 +1°C° 0 mm 2 m/s 765 mmHg 80%
    08:00 +3°C° 0 mm 2 m/s 765 mmHg 72%
    09:00 +5°C° 0 mm 2 m/s 765 mmHg 65%
    10:00 +8°C° 0 mm 3 m/s 765 mmHg 57%
    11:00 +9°C° 0 mm 3 m/s 765 mmHg 52%
    12:00 +10°C° 0 mm 2 m/s 765 mmHg 47%
    13:00 +12°C° 0 mm 2 m/s 765 mmHg 42%
    14:00 +12°C° 0 mm 2 m/s 765 mmHg 41%
    15:00 +12°C° 0 mm 2 m/s 765 mmHg 41%
    16:00 +13°C° 0 mm 2 m/s 764 mmHg 40%
    17:00 +10°C° 0 mm 2 m/s 765 mmHg 45%
    18:00 +9°C° 0 mm 2 m/s 765 mmHg 49%
    19:00 +8°C° 0 mm 1 m/s 765 mmHg 54%
    20:00 +7°C° 0 mm 2 m/s 765 mmHg 55%
    21:00 +6°C° 0 mm 2 m/s 765 mmHg 57%
    22:00 +6°C° 0 mm 2 m/s 766 mmHg 58%
    23:00 +5°C° 0 mm 2 m/s 766 mmHg 60%

    21 Martie, Joi

    Timp Temperatura Precipitaţii Vânt Presiune Umiditate
    00:00 +5°C° 0 mm 2 m/s 765 mmHg 62%
    01:00 +5°C° 0 mm 2 m/s 765 mmHg 64%
    02:00 +4°C° 0 mm 2 m/s 765 mmHg 65%
    03:00 +4°C° 0 mm 2 m/s 765 mmHg 67%
    04:00 +4°C° 0 mm 2 m/s 765 mmHg 68%
    05:00 +4°C° 0 mm 2 m/s 765 mmHg 70%
    06:00 +4°C° 0 mm 2 m/s 766 mmHg 71%
    07:00 +4°C° 0 mm 2 m/s 766 mmHg 72%
    08:00 +6°C° 0 mm 2 m/s 766 mmHg 68%
    09:00 +8°C° 0 mm 2 m/s 766 mmHg 64%
    10:00 +10°C° 0 mm 2 m/s 766 mmHg 60%
    11:00 +12°C° 0 mm 1 m/s 765 mmHg 58%
    12:00 +14°C° 0 mm 1 m/s 765 mmHg 56%
    13:00 +15°C° 0 mm 1 m/s 765 mmHg 54%
    14:00 +15°C° 0 mm 1 m/s 764 mmHg 54%
    15:00 +16°C° 0 mm 1 m/s 764 mmHg 54%
    16:00 +15°C° 0 mm 0 m/s 764 mmHg 53%
    17:00 +13°C° 0 mm 0 m/s 763 mmHg 59%
    18:00 +13°C° 0 mm 1 m/s 763 mmHg 65%
    19:00 +11°C° 0 mm 1 m/s 763 mmHg 71%
    20:00 +11°C° 0 mm 1 m/s 763 mmHg 73%
    21:00 +10°C° 0 mm 1 m/s 763 mmHg 76%
    22:00 +10°C° 0 mm 1 m/s 763 mmHg 78%
    23:00 +9°C° 0 mm 1 m/s 763 mmHg 79%

    22 Martie, Vineri

    Timp Temperatura Precipitaţii Vânt Presiune Umiditate
    00:00 +8°C° 0 mm 2 m/s 763 mmHg 80%
    01:00 +7°C° 0 mm 2 m/s 763 mmHg 81%
    02:00 +7°C° 0 mm 2 m/s 762 mmHg 80%
    03:00 +7°C° 0 mm 2 m/s 762 mmHg 80%
    04:00 +7°C° 0 mm 2 m/s 762 mmHg 79%
    05:00 +7°C° 0 mm 2 m/s 762 mmHg 78%
    06:00 +7°C° 0 mm 2 m/s 762 mmHg 77%
    07:00 +7°C° 0 mm 2 m/s 762 mmHg 76%
    08:00 +9°C° 0 mm 3 m/s 762 mmHg 71%
    09:00 +11°C° 0 mm 3 m/s 763 mmHg 66%
    10:00 +13°C° 0 mm 3 m/s 763 mmHg 61%
    11:00 +14°C° 0 mm 3 m/s 762 mmHg 58%
    12:00 +16°C° 0 mm 3 m/s 762 mmHg 54%
    13:00 +17°C° 0 mm 3 m/s 762 mmHg 51%
    14:00 +17°C° 0 mm 3 m/s 762 mmHg 53%
    15:00 +17°C° 0 mm 4 m/s 762 mmHg 56%
    16:00 +17°C° 0 mm 4 m/s 762 mmHg 59%
    17:00 +14°C° 0 mm 4 m/s 762 mmHg 67%
    18:00 +13°C° 0 mm 3 m/s 763 mmHg 74%
    19:00 +12°C° 0 mm 3 m/s 763 mmHg 82%
    20:00 +11°C° 0 mm 3 m/s 763 mmHg 86%
    21:00 +10°C° 0 mm 3 m/s 764 mmHg 89%
    22:00 +9°C° 0 mm 2 m/s 764 mmHg 92%
    23:00 +8°C° 0 mm 2 m/s 764 mmHg 92%

    23 Martie, Sâmbătă

    Timp Temperatura Precipitaţii Vânt Presiune Umiditate
    00:00 +7°C° 0 mm 2 m/s 764 mmHg 91%
    01:00 +6°C° 0 mm 2 m/s 764 mmHg 90%
    02:00 +6°C° 0 mm 2 m/s 764 mmHg 89%
    03:00 +5°C° 0 mm 2 m/s 764 mmHg 88%
    04:00 +5°C° 0 mm 2 m/s 763 mmHg 86%
    05:00 +5°C° 0 mm 2 m/s 763 mmHg 86%
    06:00 +5°C° 0 mm 2 m/s 763 mmHg 86%
    07:00 +5°C° 0 mm 2 m/s 763 mmHg 85%
    08:00 +7°C° 0 mm 2 m/s 763 mmHg 80%
    09:00 +10°C° 0 mm 2 m/s 762 mmHg 74%
    10:00 +13°C° 0 mm 2 m/s 762 mmHg 68%
    11:00 +14°C° 0 mm 2 m/s 761 mmHg 64%
    12:00 +16°C° 0 mm 2 m/s 761 mmHg 59%
    13:00 +18°C° 0 mm 2 m/s 760 mmHg 54%
    14:00 +18°C° 0 mm 2 m/s 759 mmHg 53%
    15:00 +19°C° 0 mm 3 m/s 759 mmHg 52%
    16:00 +19°C° 0 mm 3 m/s 758 mmHg 50%
    17:00 +17°C° 0 mm 2 m/s 758 mmHg 56%
    18:00 +16°C° 0 mm 2 m/s 758 mmHg 62%
    19:00 +14°C° 0 mm 2 m/s 758 mmHg 67%
    20:00 +13°C° 0 mm 2 m/s 758 mmHg 70%
    21:00 +12°C° 0 mm 3 m/s 758 mmHg 73%
    22:00 +11°C° 0 mm 3 m/s 758 mmHg 76%
    23:00 +11°C° 0 mm 3 m/s 758 mmHg 78%
    Arată mai mult